SCP
0 0 0 0 0 0 0 0 0 0 0 0 0 0 0 0 0 0 0 0 0 0 0 0 0 0 0 0 0 0 0 0 0 0 0 0 0 0
0 0 0 0 0 0 0 0 0 0 0 0 0 0 0 0 0 0 0 0 0 0 0 0 0 0 0 0 0 0 0 0 0 0 0 0 0 0
0 0 0 0 0 0 0 0 0 0 0 0 0 0 0 0 0 0 0 0 0 0 0 0 0 0 0 0 0 0 0 0 0 0 0 0 0 0
0 0 0 0 0 0 0 0 0 0 0 0 0 0 0 0 0 0 0 0 0 0 0 0 0 0 0 0 0 0 0 0 0 0 0 0 0 0
0 0 0 0 0 0 0 0 0 0 0 0 0 0 0 0 0 0 0 0 0 0 0 0 0 0 0 0 0 0 0 0 0 0 0 0 0 0
0 0 0 0 0 0 0 0 0 0 0 0 0 0 0 0 0 0 0 0 0 0 0 0 0 0 0 0 0 0 0 0 0 0 0 0 0 0
0 0 0 0 0 0 0 0 0 1 1 0 0 0 1 1 1 1 0 0 0 0 0 0 0 0 0 0 0 0 0 0 0 0 0 0 0 0
0 0 0 0 0 0 0 0 0 0 0 0 0 0 1 1 1 1 0 0 0 0 0 0 0 0 0 0 0 0 0 0 0 0 0 0 0 0
0 0 0 0 0 0 0 0 0 0 0 0 0 0 0 0 0 0 0 0 0 0 0 0 0 0 0 0 0 0 0 0 0 0 0 0 0 0
0 0 0 0 0 0 0 0 0 0 0 0 0 0 0 0 0 0 0 0 0 0 0 0 0 0 0 0 0 0 0 0 0 0 0 0 0 0
0 0 0 0 0 0 0 0 0 0 0 0 0 0 0 0 0 0 0 0 0 0 0 0 0 0 0 0 0 0 0 0 0 0 0 0 0 0
0 0 0 0 0 0 0 0 0 0 0 0 0 0 0 0 0 0 0 0 0 0 0 0 0 0 0 0 0 0 0 0 0 0 0 0 0 0
0 0 0 0 0 0 0 0 0 0 0 0 0 0 0 0 0 0 0 0 0 0 0 0 0 0 0 0 0 0 0 0 0 0 0 0 0 0
0 0 0 0 0 0 0 0 0 0 0 0 0 0 0 0 0 0 0 0 0 0 0 0 0 0 0 0 0 0 0 0 0 0 0 0 0 0
0 0 0 0 0 0 0 0 0 0 0 0 0 0 0 0 0 0 0 0 0 0 0 0 0 0 0 0 0 0 0 0 0 0 0 0 0 0
0 0 0 0 0 0 0 0 0 0 0 0 0 0 0 0 0 0 0 0 0 0 0 0 0 0 0 0 0 0 0 0 0 0 0 0 0 0
0 0 0 0 0 0 0 0 0 0 0 0 0 0 0 0 0 0 0 0 0 0 0 0 0 0 0 0 0 0 0 0 0 0 0 0 0 0
0 0 0 0 0 0 0 0 0 0 0 0 0 0 0 0 0 0 0 0 0 0 0 0 0 0 0 0 0 0 0 0 0 0 0 0 0 0
0 0 0 0 0 0 0 0 0 0 0 0 0 0 0 0 0 0 0 0 0 0 0 0 0 0 0 0 0 0 0 0 0 0 0 0 0 0
0 0 0 0 0 0 0 0 0 0 0 0 0 0 0 0 0 0 0 0 0 0 0 0 0 0 0 0 0 0 0 0 0 0 0 0 0 0
0 0 0 0 0 0 0 0 0 0 0 0 0 0 0 0 0 0 0 0 0 0 0 0 0 0 0 0 0 0 0 0 0 0 0 0 0 0
0 0 0 0 0 0 0 0 0 0 0 0 0 0 0 0 0 0 0 0 0 0 0 0 0 0 0 0 0 0 0 0 0 0 0 0 0 0
0 0 0 0 0 0 0 0 0 0 0 0 0 0 0 0 0 0 0 0 0 0 0 0 0 0 0 0 0 0 0 0 0 0 0 0 0 0
Wind_Speed
5 5 5 3 4 4 4 5 5 6 4 4 4 4 4 4 4 6 7 8 9 9 9 9 9 9 9 9 9 9 9 9 9 9 10 10 11 12
4 4 4 5 4 4 4 4 5 6 6 2 3 3 3 4 6 7 8 7 10 11 11 11 11 12 12 11 11 11 11 11 11 11 11 12 12 12
6 6 7 6 5 5 5 5 5 6 7 6 4 4 5 8 6 6 8 8 9 15 14 13 13 13 13 13 13 13 13 13 13 13 13 13 13 14
7 7 8 6 7 7 6 7 6 6 7 8 7 6 7 8 8 8 9 8 9 10 15 14 14 14 14 14 15 15 15 15 15 14 15 15 15 15
7 8 8 8 8 7 7 7 7 7 7 8 8 6 6 7 7 9 10 8 10 9 13 15 16 15 15 15 15 15 15 15 15 15 15 15 15 16
7 7 7 7 8 8 7 8 8 8 7 8 8 7 7 7 7 8 8 8 8 9 8 8 11 15 17 17 17 17 16 16 16 16 16 16 16 16
5 5 5 3 3 4 6 6 6 7 7 8 8 8 7 6 6 7 8 8 8 8 9 9 9 10 11 16 19 18 17 16 16 16 16 17 17 17
3 3 2 1 2 3 4 6 6 7 8 7 7 8 8 7 6 7 8 9 9 6 7 9 9 10 9 11 10 13 16 16 16 16 16 17 17 17
2 2 1 3 3 2 2 5 5 4 4 7 9 8 7 6 7 8 8 10 10 9 9 12 11 12 11 11 9 10 13 14 15 16 16 17 17 17
3 3 2 3 5 5 5 3 3 2 3 4 6 7 7 7 7 9 10 11 12 11 11 12 11 12 11 11 9 11 14 15 16 16 17 17 17 17
4 4 3 3 6 7 5 4 5 4 3 3 5 7 8 9 8 8 10 10 12 11 9 10 11 11 11 12 11 13 15 16 17 17 17 17 17 16
2 3 6 5 6 7 6 6 6 6 7 7 7 8 9 9 10 9 10 10 11 11 8 8 10 10 12 10 10 9 9 13 16 18 18 18 17 14
3 2 4 6 5 5 6 6 6 8 9 8 8 8 7 6 7 7 7 8 10 11 9 9 11 11 12 13 12 12 12 11 11 12 15 18 18 16
4 4 5 4 5 6 5 4 7 9 8 7 7 7 7 7 6 7 8 10 10 13 12 12 12 11 13 14 13 12 11 11 12 12 12 12 15 19
3 3 3 5 7 6 4 6 8 7 7 7 8 8 8 8 8 8 10 10 12 13 12 12 12 11 12 14 14 13 13 12 12 13 12 12 12 11
4 2 7 8 8 6 5 5 5 5 7 8 8 8 8 8 8 8 9 9 10 10 10 11 11 13 13 14 13 14 13 13 13 13 13 13 12 12
9 6 5 5 6 6 6 6 6 6 6 7 8 8 9 9 9 9 8 9 10 11 10 9 10 10 13 13 14 14 14 13 13 12 12 14 13 13
9 6 6 7 7 7 8 8 7 7 8 8 9 9 9 9 9 9 9 9 10 10 11 10 10 11 11 12 12 14 13 13 12 11 12 14 15 14
6 6 6 7 7 7 8 8 8 8 8 8 8 9 9 9 9 9 10 10 10 10 11 11 11 11 12 13 13 10 12 12 12 13 13 13 15 14
6 6 7 7 7 7 8 8 8 8 8 8 8 8 9 9 9 10 10 11 11 11 12 11 10 10 11 13 14 15 15 15 13 13 14 14 14 15
6 6 7 7 7 7 7 8 8 8 9 9 8 9 9 9 9 10 11 13 12 11 12 12 11 13 12 11 12 13 14 13 14 13 15 14 15 15
7 7 7 7 7 7 7 8 8 8 9 9 9 9 9 9 10 12 11 11 11 11 13 12 13 12 11 12 14 15 16 16 14 17 19 19 14 14
7 7 7 8 7 7 7 9 11 9 9 9 9 9 10 10 10 10 11 11 11 12 13 12 12 11 11 12 13 13 18 17 14 13 13 14 19 23
Wind_Direction
220 212 238 235 241 254 261 269 279 278 256 196 222 194 219 233 173 231 239 193 207 224 232 237 240 243 244 245 247 248 249 251 252 252 251 250 252 254
238 244 245 245 238 243 249 253 263 277 283 273 228 225 230 259 195 235 249 193 212 225 232 236 240 242 243 244 245 246 247 247 248 249 248 247 247 248
222 223 229 251 252 247 241 246 249 256 265 271 255 233 236 263 252 248 250 244 233 211 219 229 236 240 242 243 244 245 246 246 246 247 247 247 246 246
229 231 234 229 232 252 254 251 252 256 262 271 272 255 233 242 251 256 258 251 257 214 207 223 233 239 241 242 242 243 244 245 246 246 246 247 247 247
237 236 238 239 237 241 244 251 250 244 247 262 265 267 260 250 250 250 254 256 265 247 211 218 228 236 241 242 242 242 243 243 244 245 246 246 247 247
241 242 243 242 242 247 247 250 258 262 255 257 264 263 257 253 251 261 261 246 252 267 264 249 230 226 234 237 239 239 240 241 242 243 244 245 246 246
246 247 249 259 296 280 276 269 262 258 260 259 262 266 265 267 264 270 276 280 270 267 268 264 253 245 234 230 232 236 236 237 240 242 243 243 244 245
266 267 256 243 266 254 279 289 293 279 277 277 276 278 285 289 292 286 287 283 281 280 282 278 277 273 268 263 242 219 224 233 238 242 244 244 244 244
356 340 340 32 15 328 268 242 255 262 283 288 288 294 300 305 305 293 288 288 286 293 292 280 277 274 271 267 242 224 226 233 240 244 246 246 246 246
47 42 35 29 19 349 321 310 300 294 282 273 286 290 297 307 295 285 284 279 273 265 260 268 273 275 278 278 257 229 230 235 240 244 247 249 249 249
53 49 34 37 24 350 321 313 305 296 251 247 271 275 281 276 275 280 276 275 277 277 271 271 277 280 280 278 272 242 229 232 237 242 246 247 248 250
62 76 66 33 16 352 325 315 308 314 315 300 277 263 261 256 236 249 271 277 281 283 283 282 283 286 283 276 277 279 261 244 239 241 242 244 244 251
4 359 53 42 4 337 311 311 322 312 298 290 286 282 275 270 261 254 260 272 281 282 293 297 290 286 282 285 285 283 281 280 271 258 243 239 236 236
352 359 31 13 330 306 302 321 299 286 283 287 288 288 290 291 294 296 290 282 276 279 285 286 283 283 284 283 283 283 280 279 278 277 275 260 237 232
357 16 323 287 280 266 230 264 278 284 301 301 300 303 306 307 303 294 283 276 272 270 270 269 271 276 277 279 283 284 285 282 278 275 273 271 269 259
338 266 230 240 256 279 284 271 291 320 319 307 307 307 306 302 297 298 299 299 293 288 282 278 273 273 273 275 278 279 279 279 279 277 277 274 270 267
323 306 320 331 327 333 331 330 324 320 314 313 309 307 306 306 306 307 303 300 295 295 297 293 285 278 272 274 275 274 276 276 275 276 276 274 271 267
309 329 342 339 338 338 334 330 329 330 329 323 318 316 313 311 308 306 303 299 296 295 295 297 297 292 286 276 262 273 276 279 282 280 277 276 275 272
314 350 347 343 340 335 332 331 331 333 331 321 318 316 314 311 308 305 303 300 297 296 297 298 296 292 289 288 286 277 288 289 287 282 277 275 276 277
352 349 342 340 337 333 332 331 327 326 324 321 318 316 313 310 307 306 304 302 302 300 297 293 289 289 290 292 293 290 278 275 278 279 280 279 278 276
352 346 341 339 337 334 331 327 323 320 320 317 313 314 311 308 305 304 302 300 295 292 292 292 294 296 291 287 282 281 283 273 267 273 281 282 281 279
347 342 339 334 332 330 326 324 322 319 319 317 318 316 312 307 304 303 301 300 298 295 295 294 295 291 286 282 284 288 291 291 279 260 252 256 266 273
345 340 333 332 333 329 329 325 322 321 323 322 319 315 312 309 305 300 298 295 295 296 297 297 298 295 291 287 286 286 290 294 293 290 280 263 251 252